Location: Bluff Heights
(33.7692°N, 118.1592°W)
Time: 12:36:48
(UTC+00:00)

Vanguard 1 Rocket - Pass Details

Date: 29 September 2021
Orbit: 650 x 4226 km, 34.3° (Epoch: 21 October)

Event Time Altitude Azimuth Distance (km) Brightness Sun altitude
Rises 03:44:37 0° 252° (WSW) 2,990 10.9 -26.4°
Reaches altitude 10° 03:46:51 10° 250° (WSW) 2,040 9.9 -26.8°
Enters shadow 03:50:14 54° 232° (SW) 820 7.2 -27.5°
